RH
36 37 40 42 42 43 43 40 37 33 33 36 39 44 48 48 44 42 41 41 44 47 46 45 45 46 47 47 48 46 44 43 39 35 34 35 35 36 36 37 38 39
32 34 37 41 42 41 40 37 34 31 30 32 36 42 50 52 48 45 43 41 42 43 42 41 42 42 43 44 45 46 45 45 42 37 35 35 36 38 37 36 39 41
26 30 33 37 40 40 38 36 34 31 30 31 35 39 46 51 51 48 45 41 40 39 37 38 38 38 39 41 44 44 43 46 44 39 37 36 37 40 40 37 37 40
22 25 28 32 35 37 38 37 35 33 31 32 36 39 42 47 51 50 46 42 39 36 34 34 33 34 37 40 43 43 41 45 45 42 40 39 40 42 42 41 39 38
22 21 23 26 30 33 36 37 36 35 33 33 37 40 41 45 48 47 46 43 40 37 34 33 31 31 34 37 39 41 41 41 42 43 41 40 42 44 43 45 45 41
24 22 22 23 25 28 32 34 35 36 35 34 36 37 40 44 45 45 45 42 39 38 36 34 32 31 31 32 33 36 39 38 37 40 41 41 43 44 43 44 45 45
26 24 23 23 23 24 27 29 32 36 36 35 35 35 37 41 44 44 43 40 38 38 37 36 34 31 31 30 30 31 33 34 35 37 39 41 43 43 42 43 45 45
31 28 25 25 24 23 23 25 28 33 36 36 36 36 35 37 40 41 40 38 37 36 36 35 33 31 30 29 29 30 30 30 32 34 35 37 40 39 38 42 47 46
34 33 30 28 27 26 25 23 24 28 32 34 35 36 36 36 37 38 37 36 35 34 35 34 32 31 30 28 27 28 29 28 29 30 31 33 35 35 34 36 40 41
43 38 35 31 30 30 29 28 25 25 28 31 33 35 36 36 37 38 37 35 34 32 32 33 33 34 33 30 27 26 26 27 27 28 29 31 32 31 31 31 31 33
61 49 44 40 36 33 33 33 31 28 27 27 29 31 33 35 37 39 39 37 34 33 32 32 32 34 34 33 30 27 26 26 26 27 28 30 32 31 30 29 29 29
71 65 58 51 44 39 36 34 31 30 29 27 27 28 29 31 34 36 38 38 37 36 35 34 33 31 30 31 32 31 28 26 26 26 28 30 30 30 29 28 27 27
73 77 72 60 54 52 46 39 33 28 27 27 27 27 27 28 30 31 33 35 37 38 36 35 33 30 28 28 29 29 28 27 25 25 26 28 28 28 28 27 27 27
69 78 80 70 63 61 56 50 44 36 31 28 26 27 27 27 28 29 29 30 32 35 36 35 34 31 28 26 25 25 25 25 24 22 23 24 26 27 27 27 27 26
65 71 78 75 69 65 60 57 55 52 46 38 32 29 27 26 27 28 29 29 29 30 31 32 32 31 28 26 25 23 22 22 21 20 20 20 21 22 23 25 25 25
71 72 75 75 73 70 64 59 58 59 57 52 46 39 32 29 27 27 27 28 28 27 27 27 27 27 26 25 24 23 22 21 20 20 18 17 17 17 18 19 20 22
79 79 77 75 75 75 71 65 63 63 63 62 59 52 43 34 30 29 28 28 28 26 25 25 24 24 24 24 24 22 21 21 20 19 19 18 16 15 14 15 16 17
84 82 81 79 78 77 74 71 70 70 69 66 63 60 55 47 39 33 31 32 32 30 27 26 25 25 24 24 24 24 22 22 21 20 19 18 18 17 15 15 15 15
85 84 82 80 79 77 75 74 74 73 71 69 65 62 60 57 52 45 39 38 38 36 34 32 29 29 28 26 25 24 23 23 23 22 21 19 18 17 17 16 15 15
84 83 81 79 78 75 73 73 74 74 71 68 65 63 61 60 58 54 48 44 43 40 38 36 34 34 33 32 30 27 25 25 25 25 25 24 22 19 17 16 15 15
82 81 79 78 77 76 74 73 72 72 72 69 68 67 65 64 63 60 55 49 46 44 40 37 36 36 35 35 34 32 29 28 28 28 27 27 26 25 22 19 17 16
79 79 77 76 76 77 78 76 71 68 70 71 71 70 68 66 66 67 65 60 57 54 50 43 39 38 36 36 35 34 32 29 28 28 28 28 28 28 27 25 23 20
76 77 76 75 74 73 74 74 69 66 66 67 68 70 70 70 69 69 69 68 65 63 61 56 51 47 44 41 40 39 37 33 31 28 26 26 27 27 27 27 26 25
73 75 76 76 76 75 74 74 73 72 69 67 66 67 69 71 72 72 72 69 66 63 62 60 59 59 57 54 51 49 47 44 40 37 33 29 27 27 28 29 29 29
61 67 72 75 77 77 77 77 76 74 73 71 69 68 68 70 71 74 75 74 70 66 63 62 62 64 68 67 61 60 60 57 52 49 44 38 34 32 30 30 31 31
54 55 58 63 68 71 73 74 73 72 72 72 72 72 72 72 71 72 77 79 77 74 70 67 65 66 72 74 68 66 68 67 65 63 58 50 45 42 39 36 33 33